User: anonymous   Login
Location: Unspecified
(0.0000°N, 0.0000°E)
Time: 09:25:52
(UTC+00:00)
Language:

Diademe D-1D - Orbit

View from above orbital plane
View from above orbital plane
View from above satellite
View from above satellite

Ground track
Ground track

The orbit data is extracted from the following two-line orbital elements,

1 02680U 67014A   17327.28050764  .00000047  00000-0  46432-4 0  9990
2 02680  39.4454 282.0983 0717662 272.1788  79.6996 13.37857789457104
Epoch (UTC): 23 November 2017 06:43:55
Eccentricity: 0.0717662
inclination: 39.4454°
perigee height: 579 km
apogee height: 1655 km
right ascension of ascending node: 282.0983°
argument of perigee: 272.1788°
revolutions per day: 13.37857789
mean anomaly at epoch: 79.6996°
orbit number at epoch: 45710

The dashed part of the orbit path shows where the satellite is in the earth's shadow,  

DLR